Location: C.E.K. Mees Observatory
(42.7003°N, 77.4088°W)
Time: 14:32:22
(UTC-04:00)

Vanguard 2 Rocket - Visible Passes

Search period start: 18 October 2017 00:00
Search period end: 28 October 2017 00:00
Orbit: 555 x 3327 km, 32.9° (Epoch: 17 October)

Date Brightness Start Highest point End Pass type
(mag) Time Alt. Az. Time Alt. Az. Time Alt. Az.
18 Oct 10.7 20:13:16 10° WSW 20:23:57 24° SSW 20:37:30 10° SSE visible
19 Oct 10.4 19:12:49 10° W 19:23:13 29° SSW 19:37:40 10° SSE visible
19 Oct 11.1 21:36:07 10° SW 21:38:42 10° SW 21:41:23 10° SSW visible
20 Oct 11.0 20:30:23 10° WSW 20:38:05 16° SW 20:47:08 10° S visible
21 Oct 10.8 19:28:47 10° WSW 19:37:29 20° SSW 19:48:46 10° S visible
22 Oct 10.5 18:28:29 10° WSW 18:37:00 25° SSW 18:49:03 10° SSE visible
23 Oct 11.1 19:47:05 10° SW 19:51:48 12° SSW 19:57:10 10° SSW visible
24 Oct 10.9 18:44:58 10° WSW 18:51:25 16° SSW 18:59:36 10° S visible
